Weather History for Scarborough, Trinidad And Tobago

Change the Weather History Date:

Tuesday, October 23, 2012

  Actual Average Record
Temperature  
Mean Temperature 82 °F -  
Max Temperature 87 °F 86 °F 89 °F (2000)
Min Temperature 77 °F 76 °F 75 °F (1997)
Cooling Degree Days 17    
Growing Degree Days 32 (Base 50)    
Moisture  
Dew Point 74 °F    
Average Humidity 80    
Maximum Humidity 94    
Minimum Humidity 66    
Precipitation  
Precipitation 0.00 in - - ()
Sea Level Pressure  
Sea Level Pressure 29.82 in    
Wind  
Wind Speed 5 mph ()    
Max Wind Speed 17 mph    
Max Gust Speed -    
Visibility 6.1 miles    
Events Rain , Thunderstorm    
Averages and records for this station are not official NWS values.
T = Trace of Precipitation, MM = Missing Value Source: Averaged Metar Reports

Daily Weather History Graph

Daily Weather History Graph

Search for Another Location

Airport:

Trip Planner

Search our weather history database for the weather conditions in past years. The results will help you decide how hot, cold, wet, or windy it might be!

Date:

Astronomy

Oct. 23, 2012 Rise Set
Actual Time 5:53 AM AST 5:41 PM AST
Civil Twilight 5:31 AM AST 6:03 PM AST
Nautical Twilight 5:07 AM AST 6:27 PM AST
Astronomical Twilight 4:42 AM AST 6:52 PM AST
Moon 1:26 PM AST (10/23) 12:42 AM AST (10/23)
Length of Visible Light 12h 31m
Length of Day
11h 48m
Waxing Gibbous, 66% of the Moon is Illuminated
Oct 23
Waxing Gibbous
Oct 29
Full
Nov 6
Last Quarter
Nov 13
New
Nov 20
First Quarter

Hourly Weather History & Observations

Time (AST) Temp. Heat Index Dew Point Humidity Pressure Visibility Wind Dir Wind Speed Gust Speed Precip Events Conditions
12:00 AM 78.8 °F - 73.4 °F 83% 29.83 in 6.2 mi NE 4.6 mph - N/A   Partly Cloudy
1:00 AM 77.0 °F - 73.4 °F 89% 29.80 in 6.2 mi Calm Calm - N/A   Partly Cloudy
2:00 AM 77.0 °F - 73.4 °F 89% 29.80 in 6.2 mi Calm Calm - N/A   Partly Cloudy
5:00 AM 77.0 °F - 73.4 °F 89% 29.77 in 6.2 mi Calm Calm - N/A   Partly Cloudy
6:00 AM 77.0 °F - 73.4 °F 89% 29.80 in 6.2 mi NNE 4.6 mph - N/A   Scattered Clouds
7:00 AM 78.8 °F - 73.4 °F 83% 29.80 in 6.2 mi NE 5.8 mph - N/A   Partly Cloudy
8:00 AM 82.4 °F 88.2 °F 73.4 °F 74% 29.83 in 6.2 mi East 6.9 mph - N/A   Partly Cloudy
9:00 AM 84.2 °F 90.9 °F 73.4 °F 70% 29.86 in 6.2 mi East 13.8 mph - N/A   Partly Cloudy
10:00 AM 86.0 °F 93.4 °F 73.4 °F 66% 29.86 in 6.2 mi East 17.3 mph - N/A   Partly Cloudy
11:00 AM 87.8 °F 97.6 °F 75.2 °F 66% 29.83 in 6.2 mi ESE 13.8 mph - N/A   Partly Cloudy
12:00 PM 87.8 °F 97.6 °F 75.2 °F 66% 29.83 in 6.2 mi ESE 15.0 mph - N/A   Scattered Clouds
1:00 PM 86.0 °F 95.1 °F 75.2 °F 70% 29.80 in 6.2 mi ESE 11.5 mph - N/A   Scattered Clouds
2:00 PM 87.8 °F 97.6 °F 75.2 °F 66% 29.77 in 5.6 mi ESE 13.8 mph - N/A   Mostly Cloudy
3:00 PM 84.2 °F 92.3 °F 75.2 °F 74% 29.77 in 5.6 mi East 5.8 mph - N/A   Mostly Cloudy
4:00 PM 80.6 °F 85.4 °F 73.4 °F 79% 29.77 in 5.6 mi East 4.6 mph - N/A Rain , Thunderstorm Light Thunderstorms and Rain
5:00 PM 77.0 °F - 71.6 °F 83% 29.80 in 6.2 mi East 11.5 mph - N/A   Scattered Clouds
7:00 PM 77.0 °F - 71.6 °F 83% 29.80 in 6.2 mi ENE 5.8 mph - N/A   Scattered Clouds
8:00 PM 78.8 °F - 73.4 °F 83% 29.83 in 6.2 mi East 5.8 mph - N/A   Scattered Clouds
9:00 PM 77.0 °F - 75.2 °F 94% 29.86 in 6.2 mi Calm Calm - N/A   Scattered Clouds
10:00 PM 78.8 °F - 75.2 °F 89% 29.86 in 6.2 mi Calm Calm - N/A   Partly Cloudy
11:00 PM 78.8 °F - 75.2 °F 89% 29.86 in 6.2 mi Calm Calm - N/A   Partly Cloudy